Time,TemperatureF,DewpointF,PressureIn,WindDirection,WindDirectionDegrees,WindSpeedMPH,WindSpeedGustMPH,Humidity,HourlyPrecipIn,Conditions,Clouds,dailyrainin,SoftwareType,DateUTC
2013-04-26 00:01:00,48.8,30.5,30.33,ENE,69,0.0,0.0,49,0.00,CLR,,0.00,WeatherDisplay:10.37,2013-04-26 04:01:00,
2013-04-26 00:06:00,48.7,30.4,30.33,ENE,69,0.0,0.0,49,0.00,CLR,,0.00,WeatherDisplay:10.37,2013-04-26 04:06:00,
2013-04-26 00:11:00,48.6,30.8,30.33,ENE,69,0.0,0.0,50,0.00,CLR,,0.00,WeatherDisplay:10.37,2013-04-26 04:11:00,
2013-04-26 00:16:00,48.4,30.6,30.33,ENE,71,3.5,3.5,50,0.00,CLR,,0.00,WeatherDisplay:10.37,2013-04-26 04:16:00,
2013-04-26 00:21:00,48.3,30.0,30.33,ENE,71,0.0,0.0,49,0.00,CLR,,0.00,WeatherDisplay:10.37,2013-04-26 04:21:00,
2013-04-26 00:26:00,48.2,30.4,30.33,ENE,71,0.0,0.0,50,0.00,CLR,,0.00,WeatherDisplay:10.37,2013-04-26 04:26:00,
2013-04-26 00:31:00,48.1,30.3,30.33,ENE,71,0.0,0.0,50,0.00,CLR,,0.00,WeatherDisplay:10.37,2013-04-26 04:31:00,
2013-04-26 00:36:00,47.9,30.6,30.33,ENE,71,1.2,0.0,51,0.00,CLR,,0.00,WeatherDisplay:10.37,2013-04-26 04:36:00,
2013-04-26 00:41:00,47.6,29.4,30.33,ENE,71,1.2,0.0,49,0.00,CLR,,0.00,WeatherDisplay:10.37,2013-04-26 04:41:00,
2013-04-26 00:46:00,47.6,30.3,30.32,ENE,71,0.0,0.0,51,0.00,CLR,,0.00,WeatherDisplay:10.37,2013-04-26 04:46:00,
2013-04-26 00:51:00,47.4,28.7,30.33,ENE,71,0.0,0.0,48,0.00,CLR,,0.00,WeatherDisplay:10.37,2013-04-26 04:51:00,
2013-04-26 00:56:00,47.3,29.6,30.33,ENE,71,0.0,0.0,50,0.00,CLR,,0.00,WeatherDisplay:10.37,2013-04-26 04:56:00,
2013-04-26 01:01:00,47.2,29.5,30.33,ENE,71,0.0,0.0,50,0.00,CLR,,0.00,WeatherDisplay:10.37,2013-04-26 05:01:00,
2013-04-26 01:06:00,47.1,29.4,30.33,ENE,71,0.0,0.0,50,0.00,CLR,,0.00,WeatherDisplay:10.37,2013-04-26 05:06:00,
2013-04-26 01:11:00,47.0,29.8,30.33,ENE,71,0.0,0.0,51,0.00,CLR,,0.00,WeatherDisplay:10.37,2013-04-26 05:11:00,
2013-04-26 01:16:00,46.8,31.5,30.33,ENE,71,2.3,2.3,55,0.00,CLR,,0.00,WeatherDisplay:10.37,2013-04-26 05:16:00,
2013-04-26 01:21:00,46.5,31.6,30.33,ENE,71,1.2,0.0,56,0.00,CLR,,0.00,WeatherDisplay:10.37,2013-04-26 05:21:00,
2013-04-26 01:26:00,46.2,31.8,30.33,ENE,71,3.3,3.3,57,0.00,CLR,,0.00,WeatherDisplay:10.37,2013-04-26 05:26:00,
2013-04-26 01:31:00,45.9,31.1,30.33,ENE,69,2.3,0.0,56,0.00,CLR,,0.00,WeatherDisplay:10.37,2013-04-26 05:31:00,
2013-04-26 01:36:00,45.8,30.5,30.34,ENE,69,0.0,0.0,55,0.00,CLR,,0.00,WeatherDisplay:10.37,2013-04-26 05:36:00,
2013-04-26 01:41:00,45.7,30.0,30.33,ENE,69,0.0,0.0,54,0.00,CLR,,0.00,WeatherDisplay:10.37,2013-04-26 05:41:00,
2013-04-26 01:46:00,45.7,29.5,30.33,ENE,69,0.0,0.0,53,0.00,CLR,,0.00,WeatherDisplay:10.37,2013-04-26 05:46:00,
2013-04-26 01:51:00,45.8,29.2,30.33,ENE,69,0.0,0.0,52,0.00,CLR,,0.00,WeatherDisplay:10.37,2013-04-26 05:51:00,
2013-04-26 01:56:00,45.9,31.5,30.33,ENE,69,0.0,0.0,57,0.00,CLR,,0.00,WeatherDisplay:10.37,2013-04-26 05:56:00,
2013-04-26 02:01:00,45.8,31.9,30.32,ENE,69,1.2,1.2,58,0.00,CLR,,0.00,WeatherDisplay:10.37,2013-04-26 06:01:00,
2013-04-26 02:06:00,45.6,31.7,30.33,ENE,69,2.3,2.3,58,0.00,CLR,,0.00,WeatherDisplay:10.37,2013-04-26 06:06:00,
2013-04-26 02:11:00,45.3,31.0,30.32,ENE,69,0.0,0.0,57,0.00,CLR,,0.00,WeatherDisplay:10.37,2013-04-26 06:11:00,
2013-04-26 02:16:00,45.0,30.7,30.32,ENE,69,0.0,0.0,57,0.00,CLR,,0.00,WeatherDisplay:10.37,2013-04-26 06:16:00,
2013-04-26 02:21:00,44.8,30.5,30.32,ENE,69,0.0,0.0,57,0.00,CLR,,0.00,WeatherDisplay:10.37,2013-04-26 06:21:00,
2013-04-26 02:26:00,44.6,30.3,30.32,ENE,69,0.0,0.0,57,0.00,CLR,,0.00,WeatherDisplay:10.37,2013-04-26 06:26:00,
2013-04-26 02:31:00,44.6,30.3,30.31,ENE,69,0.0,0.0,57,0.00,CLR,,0.00,WeatherDisplay:10.37,2013-04-26 06:31:00,
2013-04-26 02:36:00,44.5,30.2,30.31,ENE,69,0.0,0.0,57,0.00,CLR,,0.00,WeatherDisplay:10.37,2013-04-26 06:36:00,
2013-04-26 02:41:00,44.4,30.1,30.32,ENE,69,0.0,0.0,57,0.00,CLR,,0.00,WeatherDisplay:10.37,2013-04-26 06:41:00,
2013-04-26 02:46:00,44.4,30.1,30.31,ENE,69,0.0,0.0,57,0.00,CLR,,0.00,WeatherDisplay:10.37,2013-04-26 06:46:00,
2013-04-26 02:51:00,44.4,31.0,30.31,ENE,69,0.0,0.0,59,0.00,CLR,,0.00,WeatherDisplay:10.37,2013-04-26 06:51:00,
2013-04-26 02:56:00,44.4,31.4,30.31,ENE,69,2.3,2.3,60,0.00,CLR,,0.00,WeatherDisplay:10.37,2013-04-26 06:56:00,
2013-04-26 03:01:00,44.2,30.8,30.31,ENE,69,0.0,0.0,59,0.00,CLR,,0.00,WeatherDisplay:10.37,2013-04-26 07:01:00,
2013-04-26 03:06:00,44.0,31.0,30.31,ENE,69,0.0,0.0,60,0.00,CLR,,0.00,WeatherDisplay:10.37,2013-04-26 07:06:00,
2013-04-26 03:11:00,43.9,30.9,30.31,ENE,69,0.0,0.0,60,0.00,CLR,,0.00,WeatherDisplay:10.37,2013-04-26 07:11:00,
2013-04-26 03:16:00,43.7,31.9,30.30,ENE,69,1.2,0.0,63,0.00,CLR,,0.00,WeatherDisplay:10.37,2013-04-26 07:16:00,
2013-04-26 03:21:00,43.4,31.2,30.30,ENE,69,2.3,2.3,62,0.00,CLR,,0.00,WeatherDisplay:10.37,2013-04-26 07:21:00,
2013-04-26 03:26:00,43.0,31.3,30.30,ENE,69,1.2,1.2,63,0.00,CLR,,0.00,WeatherDisplay:10.37,2013-04-26 07:26:00,
2013-04-26 03:31:00,42.8,31.8,30.30,ENE,69,1.2,0.0,65,0.00,CLR,,0.00,WeatherDisplay:10.37,2013-04-26 07:31:00,
2013-04-26 03:36:00,42.6,31.3,30.30,ENE,69,1.1,1.1,64,0.00,CLR,,0.00,WeatherDisplay:10.37,2013-04-26 07:36:00,
2013-04-26 03:41:00,42.4,31.1,30.30,ENE,69,0.0,0.0,64,0.00,CLR,,0.00,WeatherDisplay:10.37,2013-04-26 07:41:00,
2013-04-26 03:46:00,42.2,30.9,30.30,ENE,69,0.0,0.0,64,0.00,CLR,,0.00,WeatherDisplay:10.37,2013-04-26 07:46:00,
2013-04-26 03:51:00,42.1,30.8,30.30,ENE,69,0.0,0.0,64,0.00,CLR,,0.00,WeatherDisplay:10.37,2013-04-26 07:51:00,
2013-04-26 03:56:00,42.0,31.1,30.31,ENE,69,0.0,0.0,65,0.00,CLR,,0.00,WeatherDisplay:10.37,2013-04-26 07:56:00,
2013-04-26 04:01:00,42.1,31.2,30.31,ENE,69,0.0,0.0,65,0.00,CLR,,0.00,WeatherDisplay:10.37,2013-04-26 08:01:00,
2013-04-26 04:06:00,42.1,31.6,30.31,ENE,69,0.0,0.0,66,0.00,CLR,,0.00,WeatherDisplay:10.37,2013-04-26 08:06:00,
2013-04-26 04:11:00,41.9,30.6,30.31,ENE,69,0.0,0.0,64,0.00,CLR,,0.00,WeatherDisplay:10.37,2013-04-26 08:11:00,
2013-04-26 04:16:00,41.8,30.5,30.31,ENE,69,0.0,0.0,64,0.00,CLR,,0.00,WeatherDisplay:10.37,2013-04-26 08:16:00,
2013-04-26 04:21:00,41.7,30.8,30.32,ENE,69,0.0,0.0,65,0.00,CLR,,0.00,WeatherDisplay:10.37,2013-04-26 08:21:00,
2013-04-26 04:26:00,41.7,31.5,30.31,ENE,69,0.0,0.0,67,0.00,CLR,,0.00,WeatherDisplay:10.37,2013-04-26 08:26:00,
2013-04-26 04:32:00,41.7,31.5,30.32,ENE,69,0.0,0.0,67,0.00,CLR,,0.00,WeatherDisplay:10.37,2013-04-26 08:32:00,
2013-04-26 04:37:00,41.6,32.2,30.32,ENE,69,0.0,0.0,69,0.00,CLR,,0.00,WeatherDisplay:10.37,2013-04-26 08:37:00,
2013-04-26 04:42:00,41.5,31.7,30.32,ENE,69,0.0,0.0,68,0.00,CLR,,0.00,WeatherDisplay:10.37,2013-04-26 08:42:00,
2013-04-26 04:47:00,41.4,31.6,30.32,ENE,69,0.0,0.0,68,0.00,CLR,,0.00,WeatherDisplay:10.37,2013-04-26 08:47:00,
2013-04-26 04:52:00,41.4,31.6,30.32,ENE,69,0.0,0.0,68,0.00,CLR,,0.00,WeatherDisplay:10.37,2013-04-26 08:52:00,
2013-04-26 04:57:00,41.3,31.5,30.32,ENE,69,0.0,0.0,68,0.00,CLR,,0.00,WeatherDisplay:10.37,2013-04-26 08:57:00,
2013-04-26 05:02:00,41.1,31.0,30.32,ENE,69,0.0,0.0,67,0.00,CLR,,0.00,WeatherDisplay:10.37,2013-04-26 09:02:00,
2013-04-26 05:07:00,41.0,30.9,30.32,ENE,69,0.0,0.0,67,0.00,CLR,,0.00,WeatherDisplay:10.37,2013-04-26 09:07:00,
2013-04-26 05:12:00,40.9,31.1,30.32,ENE,69,0.0,0.0,68,0.00,CLR,,0.00,WeatherDisplay:10.37,2013-04-26 09:12:00,
2013-04-26 05:17:00,40.7,31.0,30.32,ENE,69,0.0,0.0,68,0.00,CLR,,0.00,WeatherDisplay:10.37,2013-04-26 09:17:00,
2013-04-26 05:22:00,40.5,31.1,30.32,ENE,69,0.0,0.0,69,0.00,CLR,,0.00,WeatherDisplay:10.37,2013-04-26 09:22:00,
2013-04-26 05:27:00,40.3,30.9,30.32,ENE,69,0.0,0.0,69,0.00,CLR,,0.00,WeatherDisplay:10.37,2013-04-26 09:27:00,
2013-04-26 05:32:00,40.1,30.7,30.33,ENE,69,2.3,0.0,69,0.00,CLR,,0.00,WeatherDisplay:10.37,2013-04-26 09:32:00,
2013-04-26 05:37:00,40.0,30.6,30.33,ENE,69,0.0,0.0,69,0.00,CLR,,0.00,WeatherDisplay:10.37,2013-04-26 09:37:00,
2013-04-26 05:42:00,40.0,30.6,30.33,ENE,69,0.0,0.0,69,0.00,CLR,,0.00,WeatherDisplay:10.37,2013-04-26 09:42:00,
2013-04-26 05:47:00,39.9,30.9,30.33,ENE,69,0.0,0.0,70,0.00,CLR,,0.00,WeatherDisplay:10.37,2013-04-26 09:47:00,
2013-04-26 05:52:00,39.9,30.9,30.33,ENE,69,0.0,0.0,70,0.00,CLR,,0.00,WeatherDisplay:10.37,2013-04-26 09:52:00,
2013-04-26 05:57:00,39.9,31.6,30.33,ENE,69,0.0,0.0,72,0.00,CLR,,0.00,WeatherDisplay:10.37,2013-04-26 09:57:00,
2013-04-26 06:02:00,39.7,31.1,30.33,ENE,69,0.0,0.0,71,0.00,CLR,,0.00,WeatherDisplay:10.37,2013-04-26 10:02:00,
2013-04-26 06:07:00,39.6,31.3,30.33,ENE,69,0.0,0.0,72,0.00,CLR,,0.00,WeatherDisplay:10.37,2013-04-26 10:07:00,
2013-04-26 06:12:00,39.4,31.8,30.33,ENE,69,0.0,0.0,74,0.00,CLR,,0.00,WeatherDisplay:10.37,2013-04-26 10:12:00,
2013-04-26 06:17:00,39.2,31.6,30.34,ENE,69,0.0,0.0,74,0.00,CLR,,0.00,WeatherDisplay:10.37,2013-04-26 10:17:00,
2013-04-26 06:22:00,39.1,31.2,30.34,ENE,69,0.0,0.0,73,0.00,CLR,,0.00,WeatherDisplay:10.37,2013-04-26 10:22:00,
2013-04-26 06:27:00,38.9,31.0,30.34,ENE,69,0.0,0.0,73,0.00,CLR,,0.00,WeatherDisplay:10.37,2013-04-26 10:27:00,
2013-04-26 06:32:00,38.8,30.9,30.34,ENE,69,0.0,0.0,73,0.00,CLR,,0.00,WeatherDisplay:10.37,2013-04-26 10:32:00,
2013-04-26 06:37:00,38.7,30.8,30.34,ENE,69,0.0,0.0,73,0.00,CLR,,0.00,WeatherDisplay:10.37,2013-04-26 10:37:00,
2013-04-26 06:42:00,38.7,31.1,30.34,ENE,69,0.0,0.0,74,0.00,CLR,,0.00,WeatherDisplay:10.37,2013-04-26 10:42:00,
2013-04-26 06:47:00,38.7,32.1,30.35,ENE,69,0.0,0.0,77,0.00,CLR,,0.00,WeatherDisplay:10.37,2013-04-26 10:47:00,
2013-04-26 06:52:00,38.6,31.7,30.35,ENE,69,0.0,0.0,76,0.00,CLR,,0.00,WeatherDisplay:10.37,2013-04-26 10:52:00,
2013-04-26 06:57:00,38.3,31.4,30.35,ENE,69,0.0,0.0,76,0.00,CLR,,0.00,WeatherDisplay:10.37,2013-04-26 10:57:00,
2013-04-26 07:02:00,38.1,31.5,30.34,ENE,69,0.0,0.0,77,0.00,CLR,,0.00,WeatherDisplay:10.37,2013-04-26 11:02:00,
2013-04-26 07:07:00,37.9,31.0,30.35,ENE,69,0.0,0.0,76,0.00,CLR,,0.00,WeatherDisplay:10.37,2013-04-26 11:07:00,
2013-04-26 07:12:00,37.8,31.6,30.35,ENE,69,0.0,0.0,78,0.00,CLR,,0.00,WeatherDisplay:10.37,2013-04-26 11:12:00,
2013-04-26 07:17:00,37.8,31.2,30.35,ENE,69,0.0,0.0,77,0.00,CLR,,0.00,WeatherDisplay:10.37,2013-04-26 11:17:00,
2013-04-26 07:22:00,37.8,31.2,30.36,ENE,69,0.0,0.0,77,0.00,CLR,,0.00,WeatherDisplay:10.37,2013-04-26 11:22:00,
2013-04-26 07:27:00,37.8,31.6,30.36,ENE,69,0.0,0.0,78,0.00,CLR,,0.00,WeatherDisplay:10.37,2013-04-26 11:27:00,
2013-04-26 07:32:00,37.7,31.8,30.36,ENE,69,0.0,0.0,79,0.00,CLR,,0.00,WeatherDisplay:10.37,2013-04-26 11:32:00,
2013-04-26 07:37:00,37.5,31.6,30.36,ENE,69,0.0,0.0,79,0.00,CLR,,0.00,WeatherDisplay:10.37,2013-04-26 11:37:00,
2013-04-26 07:42:00,37.3,31.4,30.36,ENE,69,0.0,0.0,79,0.00,CLR,,0.00,WeatherDisplay:10.37,2013-04-26 11:42:00,
2013-04-26 07:47:00,37.1,31.2,30.36,ENE,69,0.0,0.0,79,0.00,CLR,,0.00,WeatherDisplay:10.37,2013-04-26 11:47:00,
2013-04-26 07:52:00,37.1,31.2,30.37,ENE,69,0.0,0.0,79,0.00,CLR,,0.00,WeatherDisplay:10.37,2013-04-26 11:52:00,
2013-04-26 07:57:00,37.3,31.7,30.37,ENE,69,0.0,0.0,80,0.00,CLR,,0.00,WeatherDisplay:10.37,2013-04-26 11:57:00,
2013-04-26 08:02:00,37.3,31.7,30.37,ENE,69,0.0,0.0,80,0.00,CLR,,0.00,WeatherDisplay:10.37,2013-04-26 12:02:00,
2013-04-26 08:07:00,37.5,31.3,30.37,ENE,69,0.0,0.0,78,0.00,CLR,,0.00,WeatherDisplay:10.37,2013-04-26 12:07:00,
2013-04-26 08:12:00,37.8,31.9,30.37,ENE,69,0.0,0.0,79,0.00,CLR,,0.00,WeatherDisplay:10.37,2013-04-26 12:12:00,
2013-04-26 08:17:00,38.0,31.4,30.38,ENE,69,0.0,0.0,77,0.00,CLR,,0.00,WeatherDisplay:10.37,2013-04-26 12:17:00,
2013-04-26 08:22:00,38.2,32.6,30.38,ENE,69,0.0,0.0,80,0.00,CLR,,0.00,WeatherDisplay:10.37,2013-04-26 12:22:00,
2013-04-26 08:27:00,38.4,31.8,30.38,ENE,69,0.0,0.0,77,0.00,CLR,,0.00,WeatherDisplay:10.37,2013-04-26 12:27:00,
2013-04-26 08:32:00,38.6,31.0,30.38,ENE,69,0.0,0.0,74,0.00,CLR,,0.00,WeatherDisplay:10.37,2013-04-26 12:32:00,
2013-04-26 08:37:00,38.9,31.3,30.38,ENE,69,0.0,0.0,74,0.00,CLR,,0.00,WeatherDisplay:10.37,2013-04-26 12:37:00,
2013-04-26 08:42:00,39.4,31.8,30.38,ENE,69,1.2,1.2,74,0.00,CLR,,0.00,WeatherDisplay:10.37,2013-04-26 12:42:00,
2013-04-26 08:47:00,39.8,31.8,30.38,ENE,69,0.0,0.0,73,0.00,CLR,,0.00,WeatherDisplay:10.37,2013-04-26 12:47:00,
2013-04-26 08:52:00,40.4,31.7,30.37,ENE,69,0.0,0.0,71,0.00,CLR,,0.00,WeatherDisplay:10.37,2013-04-26 12:52:00,
2013-04-26 08:57:00,41.1,32.8,30.37,ENE,69,0.0,0.0,72,0.00,CLR,,0.00,WeatherDisplay:10.37,2013-04-26 12:57:00,
2013-04-26 09:02:00,41.8,33.8,30.37,ENE,69,0.0,0.0,73,0.00,CLR,,0.00,WeatherDisplay:10.37,2013-04-26 13:02:00,
2013-04-26 09:07:00,42.4,32.9,30.37,ENE,69,0.0,0.0,69,0.00,CLR,,0.00,WeatherDisplay:10.37,2013-04-26 13:07:00,
2013-04-26 09:12:00,43.0,34.2,30.37,ENE,69,0.0,0.0,71,0.00,CLR,,0.00,WeatherDisplay:10.37,2013-04-26 13:12:00,
2013-04-26 09:17:00,43.7,35.3,30.37,ENE,69,0.0,0.0,72,0.00,CLR,,0.00,WeatherDisplay:10.37,2013-04-26 13:17:00,
2013-04-26 09:22:00,44.4,35.6,30.37,ENE,69,0.0,0.0,71,0.00,CLR,,0.00,WeatherDisplay:10.37,2013-04-26 13:22:00,
2013-04-26 09:27:00,45.0,35.1,30.37,ENE,69,0.0,0.0,68,0.00,CLR,,0.00,WeatherDisplay:10.37,2013-04-26 13:27:00,
2013-04-26 09:32:00,45.6,35.6,30.36,ENE,69,0.0,0.0,68,0.00,CLR,,0.00,WeatherDisplay:10.37,2013-04-26 13:32:00,
2013-04-26 09:37:00,46.0,34.9,30.36,ENE,69,0.0,0.0,65,0.00,CLR,,0.00,WeatherDisplay:10.37,2013-04-26 13:37:00,
2013-04-26 09:42:00,46.6,37.3,30.36,ENE,69,0.0,0.0,70,0.00,CLR,,0.00,WeatherDisplay:10.37,2013-04-26 13:42:00,
2013-04-26 09:47:00,47.3,36.5,30.36,ENE,68,1.2,1.2,66,0.00,CLR,,0.00,WeatherDisplay:10.37,2013-04-26 13:47:00,
2013-04-26 09:52:00,47.8,37.0,30.36,ENE,68,2.3,2.3,66,0.00,CLR,,0.00,WeatherDisplay:10.37,2013-04-26 13:52:00,
2013-04-26 09:57:00,48.4,36.8,30.36,ENE,68,0.0,0.0,64,0.00,CLR,,0.00,WeatherDisplay:10.37,2013-04-26 13:57:00,
2013-04-26 10:02:00,48.9,37.3,30.36,ENE,67,0.0,0.0,64,0.00,CLR,,0.00,WeatherDisplay:10.37,2013-04-26 14:02:00,
2013-04-26 10:08:00,49.4,36.1,30.36,ENE,69,0.0,0.0,60,0.00,CLR,,0.00,WeatherDisplay:10.37,2013-04-26 14:08:00,
2013-04-26 10:13:00,49.8,36.9,30.36,ENE,62,3.5,3.5,61,0.00,CLR,,0.00,WeatherDisplay:10.37,2013-04-26 14:13:00,
2013-04-26 10:18:00,50.3,36.9,30.36,ENE,62,0.0,0.0,60,0.00,CLR,,0.00,WeatherDisplay:10.37,2013-04-26 14:18:00,
2013-04-26 10:23:00,50.8,38.2,30.36,ENE,62,0.0,0.0,62,0.00,CLR,,0.00,WeatherDisplay:10.37,2013-04-26 14:23:00,
2013-04-26 10:28:00,51.4,38.8,30.35,ENE,59,1.2,1.2,62,0.00,CLR,,0.00,WeatherDisplay:10.37,2013-04-26 14:28:00,
2013-04-26 10:33:00,51.8,39.2,30.36,ENE,59,2.2,2.2,62,0.00,CLR,,0.00,WeatherDisplay:10.37,2013-04-26 14:33:00,
2013-04-26 10:38:00,52.5,37.7,30.36,ENE,60,0.0,0.0,57,0.00,CLR,,0.00,WeatherDisplay:10.37,2013-04-26 14:38:00,
2013-04-26 10:43:00,53.0,37.3,30.36,ENE,59,1.2,0.0,55,0.00,CLR,,0.00,WeatherDisplay:10.37,2013-04-26 14:43:00,
2013-04-26 10:48:00,53.6,37.3,30.36,NE,50,2.3,2.3,54,0.00,CLR,,0.00,WeatherDisplay:10.37,2013-04-26 14:48:00,
2013-04-26 10:53:00,54.4,36.6,30.36,NE,50,0.0,0.0,51,0.00,CLR,,0.00,WeatherDisplay:10.37,2013-04-26 14:53:00,
2013-04-26 10:58:00,55.0,37.2,30.36,NE,37,1.2,1.2,51,0.00,CLR,,0.00,WeatherDisplay:10.37,2013-04-26 14:58:00,
2013-04-26 11:03:00,55.6,38.2,30.36,NNE,30,2.3,2.3,52,0.00,CLR,,0.00,WeatherDisplay:10.37,2013-04-26 15:03:00,
2013-04-26 11:08:00,56.1,36.7,30.36,NE,48,0.0,0.0,48,0.00,CLR,,0.00,WeatherDisplay:10.37,2013-04-26 15:08:00,
2013-04-26 11:13:00,56.6,37.6,30.35,NNE,12,2.3,2.3,49,0.00,CLR,,0.00,WeatherDisplay:10.37,2013-04-26 15:13:00,
2013-04-26 11:18:00,57.0,38.5,30.35,NNE,18,2.3,0.0,50,0.00,CLR,,0.00,WeatherDisplay:10.37,2013-04-26 15:18:00,
2013-04-26 11:23:00,57.6,38.6,30.35,NNE,18,1.2,0.0,49,0.00,CLR,,0.00,WeatherDisplay:10.37,2013-04-26 15:23:00,
2013-04-26 11:28:00,58.0,38.9,30.35,NNE,20,1.2,0.0,49,0.00,CLR,,0.00,WeatherDisplay:10.37,2013-04-26 15:28:00,
2013-04-26 11:33:00,58.5,38.3,30.36,NNE,27,3.5,3.5,47,0.00,CLR,,0.00,WeatherDisplay:10.37,2013-04-26 15:33:00,
2013-04-26 11:38:00,58.9,37.0,30.35,NNE,33,2.2,2.2,44,0.00,CLR,,0.00,WeatherDisplay:10.37,2013-04-26 15:38:00,
2013-04-26 11:43:00,59.3,37.4,30.35,NNE,13,3.5,3.5,44,0.00,CLR,,0.00,WeatherDisplay:10.37,2013-04-26 15:43:00,
2013-04-26 11:48:00,59.8,39.0,30.35,NNE,19,0.0,0.0,46,0.00,CLR,,0.00,WeatherDisplay:10.37,2013-04-26 15:48:00,
2013-04-26 11:53:00,60.4,40.1,30.35,NNE,18,1.2,1.2,47,0.00,CLR,,0.00,WeatherDisplay:10.37,2013-04-26 15:53:00,
2013-04-26 11:58:00,61.1,40.1,30.35,NNE,19,0.0,0.0,46,0.00,CLR,,0.00,WeatherDisplay:10.37,2013-04-26 15:58:00,
2013-04-26 12:03:00,61.6,41.7,30.35,NE,35,0.0,0.0,48,0.00,CLR,,0.00,WeatherDisplay:10.37,2013-04-26 16:03:00,
2013-04-26 12:08:00,62.2,36.9,30.35,NW,324,0.0,0.0,39,0.00,CLR,,0.00,WeatherDisplay:10.37,2013-04-26 16:08:00,
2013-04-26 12:13:00,62.8,39.4,30.35,North,9,0.0,0.0,42,0.00,CLR,,0.00,WeatherDisplay:10.37,2013-04-26 16:13:00,
2013-04-26 12:18:00,63.4,38.6,30.35,NW,321,1.2,0.0,40,0.00,CLR,,0.00,WeatherDisplay:10.37,2013-04-26 16:18:00,
2013-04-26 12:23:00,64.0,37.9,30.35,North,351,0.0,0.0,38,0.00,CLR,,0.00,WeatherDisplay:10.37,2013-04-26 16:23:00,
2013-04-26 12:28:00,64.6,39.1,30.35,SW,231,6.9,6.9,39,0.00,CLR,,0.00,WeatherDisplay:10.37,2013-04-26 16:28:00,
2013-04-26 12:33:00,65.4,40.4,30.35,WSW,248,12.0,12.0,40,0.00,CLR,,0.00,WeatherDisplay:10.37,2013-04-26 16:33:00,
2013-04-26 12:38:00,66.2,41.2,30.35,SSE,167,9.2,9.2,40,0.00,CLR,,0.00,WeatherDisplay:10.37,2013-04-26 16:38:00,
2013-04-26 12:43:00,67.0,41.2,30.35,WSW,243,9.2,9.2,39,0.00,CLR,,0.00,WeatherDisplay:10.37,2013-04-26 16:43:00,
2013-04-26 12:48:00,67.8,39.9,30.34,SSW,198,9.2,9.2,36,0.00,CLR,,0.00,WeatherDisplay:10.37,2013-04-26 16:48:00,
2013-04-26 12:53:00,68.4,39.7,30.35,South,177,11.5,11.5,35,0.00,CLR,,0.00,WeatherDisplay:10.37,2013-04-26 16:53:00,
2013-04-26 12:58:00,69.1,41.0,30.35,SSW,206,15.0,15.0,36,0.00,CLR,,0.00,WeatherDisplay:10.37,2013-04-26 16:58:00,
2013-04-26 13:03:00,69.5,39.1,30.35,SE,127,10.4,10.4,33,0.00,CLR,,0.00,WeatherDisplay:10.37,2013-04-26 17:03:00,
2013-04-26 13:08:00,69.9,39.5,30.34,WSW,258,10.4,10.4,33,0.00,CLR,,0.00,WeatherDisplay:10.37,2013-04-26 17:08:00,
2013-04-26 13:13:00,70.3,38.2,30.34,WSW,241,10.4,10.4,31,0.00,CLR,,0.00,WeatherDisplay:10.37,2013-04-26 17:13:00,
2013-04-26 13:18:00,70.6,39.3,30.34,SSW,193,11.5,11.5,32,0.00,CLR,,0.00,WeatherDisplay:10.37,2013-04-26 17:18:00,
2013-04-26 13:23:00,70.9,38.7,30.34,WSW,247,6.9,6.9,31,0.00,CLR,,0.00,WeatherDisplay:10.37,2013-04-26 17:23:00,
2013-04-26 13:28:00,71.2,40.6,30.34,South,188,9.2,9.2,33,0.00,CLR,,0.00,WeatherDisplay:10.37,2013-04-26 17:28:00,
2013-04-26 13:33:00,71.4,40.8,30.34,SW,225,13.8,13.8,33,0.00,CLR,,0.00,WeatherDisplay:10.37,2013-04-26 17:33:00,
2013-04-26 13:38:00,71.7,39.4,30.35,SW,221,15.0,15.0,31,0.00,CLR,,0.00,WeatherDisplay:10.37,2013-04-26 17:38:00,
2013-04-26 13:43:00,71.8,37.8,30.34,West,268,16.1,16.1,29,0.00,CLR,,0.00,WeatherDisplay:10.37,2013-04-26 17:43:00,
2013-04-26 13:48:00,71.9,39.6,30.34,SSW,194,13.8,13.8,31,0.00,CLR,,0.00,WeatherDisplay:10.37,2013-04-26 17:48:00,
2013-04-26 13:53:00,71.7,37.7,30.34,SSW,204,13.8,13.8,29,0.00,CLR,,0.00,WeatherDisplay:10.37,2013-04-26 17:53:00,
2013-04-26 13:58:00,71.5,37.6,30.34,SSW,204,13.8,13.8,29,0.00,CLR,,0.00,WeatherDisplay:10.37,2013-04-26 17:58:00,
2013-04-26 14:03:00,71.4,37.5,30.33,SW,232,10.4,10.4,29,0.00,CLR,,0.00,WeatherDisplay:10.37,2013-04-26 18:03:00,
2013-04-26 14:08:00,71.4,38.3,30.33,SSW,199,13.8,13.8,30,0.00,CLR,,0.00,WeatherDisplay:10.37,2013-04-26 18:08:00,
2013-04-26 14:13:00,71.4,40.0,30.33,SW,235,10.6,10.6,32,0.00,CLR,,0.00,WeatherDisplay:10.37,2013-04-26 18:13:00,
2013-04-26 14:18:00,71.5,39.3,30.33,SW,215,9.3,9.3,31,0.00,CLR,,0.00,WeatherDisplay:10.37,2013-04-26 18:18:00,
2013-04-26 14:23:00,71.4,37.5,30.32,SW,223,10.4,10.4,29,0.00,CLR,,0.00,WeatherDisplay:10.37,2013-04-26 18:23:00,
2013-04-26 14:28:00,71.3,39.1,30.32,SW,225,5.8,5.8,31,0.00,CLR,,0.00,WeatherDisplay:10.37,2013-04-26 18:28:00,
2013-04-26 14:33:00,71.3,37.4,30.32,WSW,237,8.1,8.1,29,0.00,CLR,,0.00,WeatherDisplay:10.37,2013-04-26 18:33:00,
2013-04-26 14:38:00,71.3,35.6,30.32,WSW,250,6.9,6.9,27,0.00,CLR,,0.00,WeatherDisplay:10.37,2013-04-26 18:38:00,
2013-04-26 14:43:00,71.2,37.3,30.32,WSW,241,8.1,8.1,29,0.00,CLR,,0.00,WeatherDisplay:10.37,2013-04-26 18:43:00,
2013-04-26 14:48:00,71.1,36.3,30.31,WSW,252,5.8,5.8,28,0.00,CLR,,0.00,WeatherDisplay:10.37,2013-04-26 18:48:00,
2013-04-26 14:53:00,71.1,35.4,30.30,WSW,244,3.5,4.2,27,0.00,CLR,,0.00,WeatherDisplay:10.37,2013-04-26 18:53:00,
2013-04-26 14:58:00,71.1,38.1,30.31,SW,230,11.5,11.5,30,0.00,CLR,,0.00,WeatherDisplay:10.37,2013-04-26 18:58:00,
2013-04-26 15:03:00,71.1,37.2,30.32,SW,221,5.8,5.8,29,0.00,CLR,,0.00,WeatherDisplay:10.37,2013-04-26 19:03:00,
2013-04-26 15:08:00,71.1,38.1,30.32,WSW,245,11.5,11.5,30,0.00,CLR,,0.00,WeatherDisplay:10.37,2013-04-26 19:08:00,
2013-04-26 15:13:00,70.9,37.0,30.32,SSW,201,17.3,17.3,29,0.00,CLR,,0.00,WeatherDisplay:10.37,2013-04-26 19:13:00,
2013-04-26 15:18:00,70.6,35.9,30.31,WSW,248,15.0,15.0,28,0.00,CLR,,0.00,WeatherDisplay:10.37,2013-04-26 19:18:00,
2013-04-26 15:23:00,70.3,36.5,30.31,SW,230,15.0,15.0,29,0.00,CLR,,0.00,WeatherDisplay:10.37,2013-04-26 19:23:00,
2013-04-26 15:28:00,70.2,38.1,30.31,WSW,254,13.8,13.8,31,0.00,CLR,,0.00,WeatherDisplay:10.37,2013-04-26 19:28:00,
2013-04-26 15:33:00,70.1,35.5,30.30,SSW,202,8.1,8.1,28,0.00,CLR,,0.00,WeatherDisplay:10.37,2013-04-26 19:33:00,
2013-04-26 15:38:00,70.0,36.3,30.28,SSW,205,5.8,5.8,29,0.00,CLR,,0.00,WeatherDisplay:10.37,2013-04-26 19:38:00,
2013-04-26 15:43:00,69.8,36.9,30.30,WSW,252,6.6,6.6,30,0.00,CLR,,0.00,WeatherDisplay:10.37,2013-04-26 19:43:00,
2013-04-26 15:48:00,69.7,35.1,30.30,SW,216,9.2,9.2,28,0.00,CLR,,0.00,WeatherDisplay:10.37,2013-04-26 19:48:00,
2013-04-26 15:53:00,69.7,38.5,30.29,WSW,250,1.3,1.3,32,0.00,CLR,,0.00,WeatherDisplay:10.37,2013-04-26 19:53:00,
2013-04-26 15:58:00,69.6,36.8,30.28,SW,219,6.6,6.6,30,0.00,CLR,,0.00,WeatherDisplay:10.37,2013-04-26 19:58:00,
2013-04-26 16:03:00,69.5,37.5,30.28,SW,219,8.1,8.1,31,0.00,CLR,,0.00,WeatherDisplay:10.37,2013-04-26 20:03:00,
2013-04-26 16:08:00,69.6,39.2,30.27,SSW,194,8.7,8.7,33,0.00,CLR,,0.00,WeatherDisplay:10.37,2013-04-26 20:08:00,
2013-04-26 16:13:00,69.9,37.9,30.26,WSW,245,6.9,6.9,31,0.00,CLR,,0.00,WeatherDisplay:10.37,2013-04-26 20:13:00,
2013-04-26 16:18:00,70.2,38.1,30.26,West,264,3.3,3.3,31,0.00,CLR,,0.00,WeatherDisplay:10.37,2013-04-26 20:18:00,
2013-04-26 16:23:00,70.6,39.3,30.25,West,277,2.3,2.3,32,0.00,CLR,,0.00,WeatherDisplay:10.37,2013-04-26 20:23:00,
2013-04-26 16:28:00,70.9,37.0,30.26,WSW,245,5.8,5.8,29,0.00,CLR,,0.00,WeatherDisplay:10.37,2013-04-26 20:28:00,
2013-04-26 16:34:00,71.1,38.1,30.26,WSW,244,4.0,4.0,30,0.00,CLR,,0.00,WeatherDisplay:10.37,2013-04-26 20:34:00,
2013-04-26 16:39:00,71.2,39.0,30.26,WSW,254,3.5,3.5,31,0.00,CLR,,0.00,WeatherDisplay:10.37,2013-04-26 20:39:00,
2013-04-26 16:44:00,71.4,39.2,30.26,West,262,8.1,8.1,31,0.00,CLR,,0.00,WeatherDisplay:10.37,2013-04-26 20:44:00,
2013-04-26 16:49:00,71.6,39.3,30.26,SW,232,8.1,8.1,31,0.00,CLR,,0.00,WeatherDisplay:10.37,2013-04-26 20:49:00,
2013-04-26 16:54:00,71.7,38.6,30.26,WSW,249,8.0,8.1,30,0.00,CLR,,0.00,WeatherDisplay:10.37,2013-04-26 20:54:00,
2013-04-26 16:59:00,71.6,38.5,30.25,WSW,248,5.8,5.8,30,0.00,CLR,,0.00,WeatherDisplay:10.37,2013-04-26 20:59:00,
2013-04-26 17:04:00,71.6,41.0,30.25,West,266,3.5,3.5,33,0.00,CLR,,0.00,WeatherDisplay:10.37,2013-04-26 21:04:00,
2013-04-26 17:09:00,71.7,39.4,30.25,WSW,245,9.3,9.3,31,0.00,CLR,,0.00,WeatherDisplay:10.37,2013-04-26 21:09:00,
2013-04-26 17:14:00,71.7,40.3,30.25,WSW,242,9.2,9.2,32,0.00,CLR,,0.00,WeatherDisplay:10.37,2013-04-26 21:14:00,
2013-04-26 17:19:00,71.6,41.7,30.25,SW,223,16.1,16.1,34,0.00,CLR,,0.00,WeatherDisplay:10.37,2013-04-26 21:19:00,
2013-04-26 17:24:00,71.4,39.2,30.25,WNW,300,4.6,4.6,31,0.00,CLR,,0.00,WeatherDisplay:10.37,2013-04-26 21:24:00,
2013-04-26 17:29:00,71.2,39.8,30.26,WNW,294,6.9,6.9,32,0.00,CLR,,0.00,WeatherDisplay:10.37,2013-04-26 21:29:00,
2013-04-26 17:34:00,71.1,40.5,30.25,WSW,252,10.4,10.4,33,0.00,CLR,,0.00,WeatherDisplay:10.37,2013-04-26 21:34:00,
2013-04-26 17:39:00,71.0,40.4,30.25,West,277,2.3,2.3,33,0.00,CLR,,0.00,WeatherDisplay:10.37,2013-04-26 21:39:00,
2013-04-26 17:44:00,71.0,39.6,30.25,WSW,243,4.6,4.6,32,0.00,CLR,,0.00,WeatherDisplay:10.37,2013-04-26 21:44:00,
2013-04-26 17:49:00,71.0,38.8,30.25,WSW,251,10.4,10.4,31,0.00,CLR,,0.00,WeatherDisplay:10.37,2013-04-26 21:49:00,
2013-04-26 17:54:00,70.9,38.7,30.25,West,269,5.8,5.8,31,0.00,CLR,,0.00,WeatherDisplay:10.37,2013-04-26 21:54:00,
2013-04-26 17:59:00,70.8,39.5,30.25,West,259,15.0,15.0,32,0.00,CLR,,0.00,WeatherDisplay:10.37,2013-04-26 21:59:00,
2013-04-26 18:04:00,70.6,40.9,30.25,WSW,256,9.2,9.2,34,0.00,CLR,,0.00,WeatherDisplay:10.37,2013-04-26 22:04:00,
2013-04-26 18:09:00,70.4,38.3,30.26,West,266,5.8,5.8,31,0.00,CLR,,0.00,WeatherDisplay:10.37,2013-04-26 22:09:00,
2013-04-26 18:14:00,70.3,38.2,30.26,WSW,248,10.4,10.9,31,0.00,CLR,,0.00,WeatherDisplay:10.37,2013-04-26 22:14:00,
2013-04-26 18:19:00,70.0,39.6,30.26,WSW,257,3.5,3.5,33,0.00,CLR,,0.00,WeatherDisplay:10.37,2013-04-26 22:19:00,
2013-04-26 18:24:00,69.8,39.4,30.27,WSW,245,9.2,9.2,33,0.00,CLR,,0.00,WeatherDisplay:10.37,2013-04-26 22:24:00,
2013-04-26 18:29:00,69.5,39.1,30.27,SW,233,4.0,4.0,33,0.00,CLR,,0.00,WeatherDisplay:10.37,2013-04-26 22:29:00,
2013-04-26 18:34:00,69.2,39.6,30.28,WSW,254,5.8,5.8,34,0.00,CLR,,0.00,WeatherDisplay:10.37,2013-04-26 22:34:00,
2013-04-26 18:39:00,68.8,37.7,30.28,WSW,241,2.7,2.7,32,0.00,CLR,,0.00,WeatherDisplay:10.37,2013-04-26 22:39:00,
2013-04-26 18:44:00,68.5,39.0,30.27,WSW,251,6.9,6.9,34,0.00,CLR,,0.00,WeatherDisplay:10.37,2013-04-26 22:44:00,
2013-04-26 18:49:00,68.2,38.0,30.28,WSW,245,5.8,5.8,33,0.00,CLR,,0.00,WeatherDisplay:10.37,2013-04-26 22:49:00,
2013-04-26 18:54:00,67.9,38.5,30.28,WSW,240,1.2,1.2,34,0.00,CLR,,0.00,WeatherDisplay:10.37,2013-04-26 22:54:00,
2013-04-26 18:59:00,67.6,38.2,30.29,SW,230,8.1,9.7,34,0.00,CLR,,0.00,WeatherDisplay:10.37,2013-04-26 22:59:00,
2013-04-26 19:04:00,67.4,38.8,30.30,WSW,250,8.1,8.1,35,0.00,CLR,,0.00,WeatherDisplay:10.37,2013-04-26 23:04:00,
2013-04-26 19:10:00,67.0,38.4,30.29,WSW,244,5.8,0.0,35,0.00,CLR,,0.00,WeatherDisplay:10.37,2013-04-26 23:10:00,
2013-04-26 19:15:00,66.8,39.0,30.30,WSW,244,5.0,7.0,36,0.00,CLR,CLR,0.00,WeatherDisplay:10.37,2013-04-26 23:15:00,
2013-04-26 19:20:00,66.5,39.4,30.30,WSW,254,4.6,4.6,37,0.00,CLR,,0.00,WeatherDisplay:10.37,2013-04-26 23:20:00,
2013-04-26 19:25:00,66.2,39.1,30.31,NW,311,4.6,4.6,37,0.00,CLR,,0.00,WeatherDisplay:10.37,2013-04-26 23:25:00,
2013-04-26 19:30:00,65.9,40.2,30.32,WNW,294,9.8,9.8,39,0.00,CLR,,0.00,WeatherDisplay:10.37,2013-04-26 23:30:00,
2013-04-26 19:35:00,65.3,41.0,30.33,WNW,302,11.5,11.5,41,0.00,CLR,,0.00,WeatherDisplay:10.37,2013-04-26 23:35:00,
2013-04-26 19:40:00,64.6,41.0,30.33,NW,306,9.0,15.0,42,0.00,CLR,CLR,0.00,WeatherDisplay:10.37,2013-04-26 23:40:00,
2013-04-26 19:45:00,63.8,40.8,30.33,WNW,302,6.0,13.0,43,0.00,CLR,CLR,0.00,WeatherDisplay:10.37,2013-04-26 23:45:00,
2013-04-26 19:50:00,62.9,41.2,30.33,NW,311,10.4,10.4,45,0.00,CLR,,0.00,WeatherDisplay:10.37,2013-04-26 23:50:00,
2013-04-26 20:05:00,61.3,41.4,30.33,West,278,8.0,11.0,48,0.00,CLR,CLR,0.00,WeatherDisplay:10.37,2013-04-27 00:05:00,
2013-04-26 20:10:00,60.8,41.5,30.33,NW,316,0.0,10.0,49,0.00,CLR,CLR,0.00,WeatherDisplay:10.37,2013-04-27 00:10:00,
2013-04-26 20:15:00,60.4,41.7,30.33,WSW,248,2.7,2.7,50,0.00,CLR,,0.00,WeatherDisplay:10.37,2013-04-27 00:15:00,
2013-04-26 20:20:00,60.1,40.9,30.32,NW,306,8.1,8.1,49,0.00,CLR,,0.00,WeatherDisplay:10.37,2013-04-27 00:20:00,
2013-04-26 20:25:00,59.8,40.6,30.32,WNW,297,8.7,8.7,49,0.00,CLR,,0.00,WeatherDisplay:10.37,2013-04-27 00:25:00,
2013-04-26 20:30:00,59.7,40.5,30.33,NW,315,8.1,8.6,49,0.00,CLR,,0.00,WeatherDisplay:10.37,2013-04-27 00:30:00,
2013-04-26 20:35:00,59.5,40.8,30.32,NW,305,0.0,9.0,50,0.00,CLR,CLR,0.00,WeatherDisplay:10.37,2013-04-27 00:35:00,
2013-04-26 20:40:00,59.2,40.6,30.33,WNW,294,6.9,6.9,50,0.00,CLR,,0.00,WeatherDisplay:10.37,2013-04-27 00:40:00,
2013-04-26 20:45:00,59.1,40.5,30.32,WNW,293,5.8,5.8,50,0.00,CLR,,0.00,WeatherDisplay:10.37,2013-04-27 00:45:00,
2013-04-26 20:50:00,58.9,41.3,30.32,NW,319,1.0,9.0,52,0.00,CLR,CLR,0.00,WeatherDisplay:10.37,2013-04-27 00:50:00,
2013-04-26 20:55:00,58.8,41.7,30.32,NW,321,0.0,0.0,53,0.00,CLR,,0.00,WeatherDisplay:10.37,2013-04-27 00:55:00,
2013-04-26 21:00:00,58.6,41.0,30.32,NW,320,1.2,1.2,52,0.00,CLR,,0.00,WeatherDisplay:10.37,2013-04-27 01:00:00,
2013-04-26 21:05:00,58.5,40.9,30.31,NNW,331,0.0,1.0,52,0.00,CLR,CLR,0.00,WeatherDisplay:10.37,2013-04-27 01:05:00,
2013-04-26 21:10:00,58.3,41.2,30.30,ENE,62,0.0,0.0,53,0.00,CLR,,0.00,WeatherDisplay:10.37,2013-04-27 01:10:00,
2013-04-26 21:15:00,58.2,40.6,30.29,ENE,63,1.0,3.0,52,0.00,CLR,CLR,0.00,WeatherDisplay:10.37,2013-04-27 01:15:00,
2013-04-26 21:20:00,58.2,40.6,30.28,ENE,65,0.0,1.0,52,0.00,CLR,CLR,0.00,WeatherDisplay:10.37,2013-04-27 01:20:00,
2013-04-26 21:25:00,58.1,40.6,30.27,ENE,67,0.0,0.0,52,0.00,CLR,,0.00,WeatherDisplay:10.37,2013-04-27 01:25:00,
2013-04-26 21:30:00,58.1,40.6,30.28,ENE,67,0.0,1.0,52,0.00,CLR,CLR,0.00,WeatherDisplay:10.37,2013-04-27 01:30:00,
2013-04-26 21:35:00,58.1,41.0,30.27,ENE,69,0.0,0.0,53,0.00,CLR,,0.00,WeatherDisplay:10.37,2013-04-27 01:35:00,
2013-04-26 21:40:00,58.0,41.0,30.26,ENE,69,0.0,0.0,53,0.00,CLR,,0.00,WeatherDisplay:10.37,2013-04-27 01:40:00,
2013-04-26 21:45:00,57.9,41.3,30.27,ENE,69,0.0,0.0,54,0.00,CLR,,0.00,WeatherDisplay:10.37,2013-04-27 01:45:00,
2013-04-26 21:50:00,57.8,41.2,30.28,ENE,69,0.0,0.0,54,0.00,CLR,CLR,0.00,WeatherDisplay:10.37,2013-04-27 01:50:00,
2013-04-26 21:55:00,57.6,41.5,30.27,ENE,69,0.0,0.0,55,0.00,CLR,,0.00,WeatherDisplay:10.37,2013-04-27 01:55:00,
2013-04-26 22:00:00,57.5,40.5,30.27,ENE,67,1.0,5.0,53,0.00,CLR,CLR,0.00,WeatherDisplay:10.37,2013-04-27 02:00:00,
2013-04-26 22:05:00,57.4,41.4,30.27,ENE,65,0.0,1.0,55,0.00,CLR,CLR,0.00,WeatherDisplay:10.37,2013-04-27 02:05:00,
2013-04-26 22:10:00,57.4,42.3,30.27,ENE,65,0.0,0.0,57,0.00,CLR,,0.00,WeatherDisplay:10.37,2013-04-27 02:10:00,
2013-04-26 22:15:00,57.3,42.2,30.26,ENE,70,2.3,0.0,57,0.00,CLR,,0.00,WeatherDisplay:10.37,2013-04-27 02:15:00,
2013-04-26 22:20:00,57.2,41.2,30.27,ENE,70,0.0,0.0,55,0.00,CLR,,0.00,WeatherDisplay:10.37,2013-04-27 02:20:00,
2013-04-26 22:25:00,57.2,42.5,30.28,ENE,70,0.0,0.0,58,0.00,CLR,,0.00,WeatherDisplay:10.37,2013-04-27 02:25:00,
2013-04-26 22:30:00,57.1,42.0,30.28,ENE,74,0.0,0.0,57,0.00,CLR,,0.00,WeatherDisplay:10.37,2013-04-27 02:30:00,
2013-04-26 22:35:00,57.1,41.5,30.28,ENE,78,0.0,0.0,56,0.00,CLR,,0.00,WeatherDisplay:10.37,2013-04-27 02:35:00,
2013-04-26 22:40:00,57.1,40.6,30.28,ENE,78,0.0,0.0,54,0.00,CLR,,0.00,WeatherDisplay:10.37,2013-04-27 02:40:00,
2013-04-26 22:45:00,57.1,41.1,30.28,East,79,0.0,0.0,55,0.00,CLR,,0.00,WeatherDisplay:10.37,2013-04-27 02:45:00,
2013-04-26 22:50:00,57.1,40.6,30.28,East,79,0.0,0.0,54,0.00,CLR,,0.00,WeatherDisplay:10.37,2013-04-27 02:50:00,
2013-04-26 22:55:00,57.2,40.7,30.29,East,79,0.0,0.0,54,0.00,CLR,,0.00,WeatherDisplay:10.37,2013-04-27 02:55:00,
2013-04-26 23:00:00,57.2,42.1,30.29,East,79,1.0,2.0,57,0.00,CLR,CLR,0.00,WeatherDisplay:10.37,2013-04-27 03:00:00,
2013-04-26 23:05:00,57.2,41.6,30.30,East,79,0.0,0.0,56,0.00,CLR,,0.00,WeatherDisplay:10.37,2013-04-27 03:05:00,
2013-04-26 23:10:00,57.2,42.1,30.30,SSE,155,4.6,4.6,57,0.00,CLR,,0.00,WeatherDisplay:10.37,2013-04-27 03:10:00,
2013-04-26 23:15:00,57.3,41.7,30.30,SE,133,1.0,6.0,56,0.00,CLR,CLR,0.00,WeatherDisplay:10.37,2013-04-27 03:15:00,
2013-04-26 23:20:00,57.6,42.0,30.31,South,191,5.8,5.8,56,0.00,CLR,,0.00,WeatherDisplay:10.37,2013-04-27 03:20:00,
2013-04-26 23:25:00,57.7,41.6,30.31,SSW,192,3.0,7.0,55,0.00,CLR,CLR,0.00,WeatherDisplay:10.37,2013-04-27 03:25:00,
2013-04-26 23:30:00,57.8,42.7,30.31,SSW,195,10.4,10.4,57,0.00,CLR,,0.00,WeatherDisplay:10.37,2013-04-27 03:30:00,
2013-04-26 23:35:00,57.8,43.6,30.31,South,187,5.8,5.8,59,0.00,CLR,,0.00,WeatherDisplay:10.37,2013-04-27 03:35:00,
2013-04-26 23:40:00,57.7,43.5,30.31,SSW,195,0.0,8.0,59,0.00,CLR,CLR,0.00,WeatherDisplay:10.37,2013-04-27 03:40:00,
2013-04-26 23:45:00,57.6,42.9,30.32,SSW,204,1.2,1.2,58,0.00,CLR,,0.00,WeatherDisplay:10.37,2013-04-27 03:45:00,
2013-04-26 23:50:00,57.4,44.1,30.32,SSW,204,0.0,0.0,61,0.00,CLR,,0.00,WeatherDisplay:10.37,2013-04-27 03:50:00,
2013-04-26 23:55:00,57.2,43.4,30.31,SSW,204,0.0,0.0,60,0.00,CLR,CLR,0.00,WeatherDisplay:10.37,2013-04-27 03:55:00,